Tracking 35331 objects as of 14-Sep-2026
HD Live streaming from Space Station
objects crossing your sky now

OPS 9346 (IDSCS 25)


OPS 9346 (IDSCS 25) is classified as:


NORAD ID: 3289
Int'l Code: 1968-050F
Launch date: June 13, 1968
Source: United States (US)
Launch site: AIR FORCE EASTERN TEST RANGE (AFETR)
Your satellite tracking list
Your tracking list is empty




NASA's NSSDC Master Catalog

Two Line Element Set (TLE):
1  3289U 68050F   26204.14623148 -.00000115  00000-0  00000+0 0  9991
2  3289   7.1539  52.9631 0046102 141.5678  76.0197  1.07288139 51038
Source of the keplerian elements: AFSPC